STARLINK-34962 (65248 NORAD) Tracking and Keplerian Element Data

This shows tracking and keplerian element data for the satellite.

Feedback or suggestion? Click here.




ElementValue
Catalog65248
NameSTARLINK-34962
Epoch Orbit1985
Epoch Day354.10934914
Epoch Year2025
RAAN34.5162
Inclination97.6055
Eccentricity0.0001449
Argument of Perigee110.8073
Mean Anonmoly249.331
Mean Motion15.05648808
Decay Rate4.096E-05
L11 65248U 25179P 25354.10934914 .00004096 00000+0 28791-3 0 9997
L22 65248 97.6055 34.5162 0001449 110.8073 249.3310 15.05648808 19858



Live tracking and technical data element details for STARLINK-34962 (NORAD 65248). STARLINK-34962 can be tracked NOW for your location showing map with azimuth and elevation plus other details from your city location.







IsCatalogInMostPopularTable: catalog: 65248, numindb: 7
Update: records affected: 1



GetName: 65248 STARLINK-34962

Hit Count: updated at: Mon, 20 Apr 2026 09:33:32 GMT